DW7262 La Rochelle FR current weather conditions

sailwx.info

Wind from 053 at 2 knots gusting 6

Air temperature 19.4° C
Dewpoint 15.5° C

Last reported at 2014-Oct-01 09:54 UTC.
Time now 2014-Oct-01 14:24 UTC

Location: N 45°57' W 001°22'.
View on Google Maps.

See reports from other nearby stations

  
Tides and Currents Weather Stations Pressure Air Temp Water Temp Dewpoint Dewpoint Depression Visibility Wind Speed Wind Dir Waves Ship Positions
date/time (UTC)wind fromknots sea level pressurealtimeterstation pressurevisibilityair tempwater tempwave heightnotes
2014-Oct-01 09:54 053 2 gusting 6 19.4
2014-Oct-01 09:44 029 3 gusting 6 19.4
2014-Oct-01 09:10 346 3 gusting 6 18.3
2014-Oct-01 09:00 347 3 gusting 6 18.3
2014-Oct-01 08:50 349 2 gusting 6 17.8
2014-Oct-01 08:41 334 3 gusting 6 17.8
2014-Oct-01 08:19 018 2 gusting 6 17.2
2014-Oct-01 08:08 022 1 gusting 3 17.2
2014-Oct-01 07:45 006 0 gusting 2 16.1
2014-Oct-01 07:36 009 15.6
2014-Oct-01 07:25 325 14.4
2014-Oct-01 07:15 325 13.3
2014-Oct-01 07:05 325 13.3
2014-Oct-01 06:55 325 13.3
2014-Oct-01 06:45 325 13.9
2014-Sep-30 19:04 311 1 gusting 4 17.8
2014-Sep-30 18:54 301 2 gusting 5 17.8
2014-Sep-30 18:43 307 2 gusting 5 18.3
2014-Sep-30 18:21 314 2 gusting 6 18.3
2014-Sep-30 17:36 316 2 gusting 6 19.4
2014-Sep-30 16:50 275 3 gusting 6 20.6
2014-Sep-30 16:40 270 2 gusting 6 20.6
2014-Sep-30 16:18 322 4 gusting 8 20.6
2014-Sep-30 16:08 287 4 gusting 8 20.6
2014-Sep-30 15:59 279 3 gusting 8 20.6
2014-Sep-30 15:37 269 3 gusting 7 20.6
2014-Sep-30 15:15 295 3 gusting 6 20.6
2014-Sep-30 15:05 273 3 gusting 6 20.6
2014-Sep-30 14:55 277 3 gusting 7 20.6
2014-Sep-30 14:45 283 3 gusting 7 20.6
2014-Sep-30 14:36 297 3 gusting 8 20.6
2014-Sep-30 14:02 293 3 gusting 6 20.6
2014-Sep-30 13:52 298 2 gusting 7 21.1
2014-Sep-30 13:30 291 3 gusting 6 21.1
2014-Sep-30 13:20 321 3 gusting 6 21.1
2014-Sep-30 13:10 312 4 gusting 6 21.1
2014-Sep-30 12:12 239 3 gusting 6 21.1
2014-Sep-30 12:02 273 3 gusting 6 21.7
2014-Sep-30 10:26 288 0 gusting 3 20.6
2014-Sep-30 10:16 027 0 gusting 4 20.6
2014-Sep-30 10:06 013 1 gusting 4 20.6
2014-Sep-30 09:55 309 1 gusting 3 20.0
2014-Sep-30 09:45 288 0 gusting 3 20.0
2014-Sep-30 09:22 037 2 gusting 5 19.4
2014-Sep-30 09:12 005 1 gusting 3 19.4
2014-Sep-30 08:37 060 18.3
2014-Sep-30 08:28 062 0 gusting 2 18.3
2014-Sep-30 07:18 184 13.3
2014-Sep-29 20:12 356 16.7
2014-Sep-29 19:49 050 17.2
2014-Sep-29 19:14 283 0 gusting 1 18.3
2014-Sep-29 19:04 298 0 gusting 2 18.3
2014-Sep-29 18:41 297 0 gusting 3 18.3
2014-Sep-29 17:42 289 1 gusting 4 18.9
2014-Sep-29 17:33 329 1 gusting 5 19.4
2014-Sep-29 17:23 278 2 gusting 5 19.4
2014-Sep-29 17:13 283 2 gusting 4 19.4
2014-Sep-29 17:03 287 1 gusting 5 20.0
2014-Sep-29 16:29 293 1 gusting 6 20.0
2014-Sep-29 16:19 283 2 gusting 6 20.0
2014-Sep-29 15:32 270 2 gusting 6 20.0
2014-Sep-29 15:21 278 3 gusting 6 20.0
2014-Sep-29 14:46 269 2 gusting 6 20.0